User: anonymous   Login
Location: Rounton
(54.4000°N, 1.3500°W)
Time: 08:02:45
(UTC+01:00)
Language:

Tiros 1 despin weight - Orbit

View from above orbital plane
View from above orbital plane
View from above satellite
View from above satellite

Ground track
Ground track

The orbit data is extracted from the following two-line orbital elements,

1 00115U 60002D   23275.29490779  .00005014  00000-0  57207-3 0  9995
2 00115  48.1637 246.7162 0031983 154.6848 205.5641 14.87095686370373
Epoch (UTC): 02 October 2023 07:04:40
Eccentricity: 0.0031983
inclination: 48.1637°
perigee height: 584 km
apogee height: 629 km
right ascension of ascending node: 246.7162°
argument of perigee: 154.6848°
revolutions per day: 14.87095686
mean anomaly at epoch: 205.5641°
orbit number at epoch: 37037

The dashed part of the orbit path shows where the satellite is in the earth's shadow,  

DLR